Regional Weather Roundup
Issued by NWS

Home | Current Version | Previous Version | Text Only | Print | Product List | Glossary Off
Versions: 1 2 3 4 5 6 7 8 9 10 11 12 13 14 15 16 17 18 19 20 21 22 23 24 25 26 27 28 29 30 31 32 33 34 35 36 37 38 39 40 41 42 43 44 45 46 47 48 49 50

413
ASUS43 KOAX 291310
RWRNE

WEATHER ROUNDUP FOR NEBRASKA
NATIONAL WEATHER SERVICE OMAHA NE
800 AM CDT FRI APR 29 2016

NOTES: SATELLITE DATA IS BEING USED TO AUGMENT CLOUD COVER ABOVE
       12000 FEET.
       "FAIR" INDICATES FEW OR NO CLOUDS BELOW 12,000 FEET WITH NO
       SIGNIFICANT WEATHER AND/OR OBSTRUCTIONS TO VISIBILITY.

  * THESE STATIONS DO NOT REPORT WEATHER SUCH AS RAIN...SNOW OR FOG.

NEZ001>004-019>022-054>056-291400-
NEBRASKA PANHANDLE

CITY           SKY/WX    TMP DP  RH WIND       PRES   REMARKS
SCOTTSBLUFF    CLOUDY    36  33  89 CALM      30.06S
ALLIANCE       CLOUDY    37  34  89 NE6       30.05F WCI  32
CHADRON        CLOUDY    37  35  92 NE5       30.09F WCI  33
KIMBALL        FOG       33  33  99 NE7       30.02F VSB 1/4 WCI  27
SIDNEY         FOG       36  34  92 NE9       30.02F VSB<1/4 WCI  29
$$

NEZ057>060-069>072-079>082-291400-
SOUTHWEST NEBRASKA

CITY           SKY/WX    TMP DP  RH WIND       PRES   REMARKS
NORTH PLATTE   CLOUDY    39  36  89 N8        30.05F WCI  33
IMPERIAL       CLOUDY    41  38  89 NE8       30.04S
LEXINGTON      CLOUDY    41  37  88 NE8       30.05F
MCCOOK         CLOUDY    43  40  89 NE8       30.03S
OGALLALA       CLOUDY    40  37  87 NE6       30.04F
$$

NEZ005>010-023>029-035>040-094-291400-
NORTH CENTRAL NEBRASKA

CITY           SKY/WX    TMP DP  RH WIND       PRES   REMARKS
VALENTINE      CLOUDY    39  36  89 NW6       30.12S WCI  35
AINSWORTH      CLOUDY    40  39  99 N6        30.10F FOG
BROKEN BOW     CLOUDY    39  37  92 N8        30.05F WCI  33
O`NEILL        CLOUDY    40  39  95 N5        30.11F
ORD            CLOUDY    42  39  89 N9        30.06F
THEDFORD       CLOUDY    40  38  93 N8        30.07F WCI  34
$$

NEZ041-046>049-061>064-073>077-083>087-291400-
SOUTH CENTRAL NEBRASKA

CITY           SKY/WX    TMP DP  RH WIND       PRES   REMARKS
GRAND ISLAND   CLOUDY    41  39  93 N8        30.06F
AURORA         CLOUDY    42  41  97 NE7       30.06F
HASTINGS       CLOUDY    41  38  89 NE10      30.02F
HEBRON         CLOUDY    44  39  81 NE8       30.06S
HOLDREGE       MOSUNNY   41  38  91 N14       30.02F
KEARNEY *      CLOUDY    41  37  87 N10       30.04F
YORK           CLOUDY    43  39  87 N10       30.07F
$$

NEZ011>018-030>034-042>045-291400-
NORTHEAST NEBRASKA

CITY           SKY/WX    TMP DP  RH WIND       PRES   REMARKS
NORFOLK        CLOUDY    42  38  85 N10       30.08S
ALBION         CLOUDY    42  38  87 N5        30.09R
BLAIR          CLOUDY    44  41  90 N9        30.07F
COLUMBUS *     CLOUDY    43  34  70 NE7       30.09F
FREMONT        CLOUDY    43  40  89 N5        30.09F
TEKAMAH        CLOUDY    43  41  93 N8        30.11R
WAYNE          CLOUDY    42  41  96 NE8       30.11F FOG
$$

NEZ050>053-065>068-078-088>093-291400-
SOUTHEAST NEBRASKA

CITY           SKY/WX    TMP DP  RH WIND       PRES   REMARKS
LINCOLN        CLOUDY    45  40  82 N13       30.07F
OMAHA EPPLEY   CLOUDY    45  41  86 N12       30.08F
BEATRICE       CLOUDY    45  39  81 NE9       30.07S
FALLS CITY     CLOUDY    47  40  76 NE9       30.07R
NEBRASKA CITY  CLOUDY    45  40  84 NE12      30.07R
PLATTSMOUTH    CLOUDY    45  41  86 N10       30.06F
$$

NEZ044-045-051>053-067-291400-
OMAHA AREA

CITY           SKY/WX    TMP DP  RH WIND       PRES   REMARKS
OMAHA EPPLEY   CLOUDY    45  41  86 N12       30.08F
BLAIR          CLOUDY    44  41  90 N9        30.07F
FREMONT        CLOUDY    43  40  89 N5        30.09F
MILLARD        CLOUDY    45  40  82 N5        30.08F
OFFUTT AFB     CLOUDY    45  42  88 N8        30.07F
PLATTSMOUTH    CLOUDY    45  41  86 N10       30.06F
WAHOO          CLOUDY    45  40  85 NE10      30.08F
$$




USA.gov is the U.S. government's official web portal to all federal, state and local government web resources and services.